[[{"header":{"parameterUnit":"m.s-1","parameterCategory":1,"la1":30.2991,"la2":30.254,"lo1":-89.0895,"lo2":-89.0444,"dy":0.0017,"dx":0.0017,"nx":28,"ny":28,"refTime":"2025-03-23T21:00:00:Z","depth":0,"parameterNumber":2,"parameterNumberName":"U-component_of_WINDS"},"data":[0,0,0,0,0,0,0,0,0,0,0,0,0,0,0,0,0,0,0,0,0,0,0,0,0,0,0,0,0,0,0,0,0,0,0,0,0,0,0,0,0,0,0,0,0,0,0,0,0,0,0,0,0,0,0,0,0,0,0.4321,0.4321,0,0.4369,0.4369,0.437,0.4383,0.4383,0.4383,0.4382,0.4429,0.4431,0.4432,0,0,0,0,0,0,0,0,0,0,0,0,0,0.4237,0.4238,0.4321,0.4321,0.4322,0.4369,0.4369,0.437,0.4383,0.4383,0.4383,0.4382,0.4429,0.4431,0.4433,0,0,0,0,0,0,0,0,0,0,0,0,0,0.4278,0.4239,0.4321,0.4334,0.4336,0.4369,0.4369,0.437,0.4383,0.4383,0.4382,0.4382,0.4428,0.4431,0.4433,0.4455,0,0,0.444,0.4441,0,0,0,0,0,0,0,0,0.4275,0.4281,0.4332,0.4333,0.4335,0.437,0.4357,0.4398,0.4383,0.4365,0.4382,0.4382,0.441,0.4413,0.4423,0.4457,0.4459,0.444,0.4441,0.4442,0.4443,0,0,0,0,0,0,0,0.4273,0.4279,0.434,0.4332,0.4335,0.4337,0.4342,0.4365,0.4389,0.4367,0.4368,0.4373,0.4411,0.4421,0.4424,0.446,0.444,0.4442,0.4443,0.4444,0.4512,0.4512,0,0,0,0,0,0,0.4268,0.4276,0.4338,0.4341,0.4304,0.4338,0.4345,0.4359,0.4389,0.4393,0.4374,0.4374,0.4417,0.4422,0.4426,0.4453,0.4442,0.4444,0.4446,0.4511,0.4512,0.4512,0,0,0,0,0,0,0.4266,0.4273,0.4336,0.4309,0.4317,0.434,0.4356,0.436,0.4371,0.4394,0.4398,0.438,0.4417,0.4423,0.4447,0.4455,0.4445,0.4447,0.4511,0.4511,0.4512,0.4507,0,0,0,0,0,0,0.4263,0.4272,0.4282,0.4309,0.4319,0.4358,0.4357,0.4361,0.4375,0.4375,0.4401,0.4405,0.4417,0.4444,0.445,0.4458,0.4449,0.451,0.4511,0.4512,0.4507,0.4507,0.4508,0,0,0,0,0,0.426,0.4279,0.4282,0.429,0.4331,0.4358,0.4363,0.4378,0.4375,0.4384,0.4399,0.4404,0.4453,0.4446,0.4453,0.4462,0.451,0.4511,0.4512,0.4506,0.4507,0.4508,0,0,0,0,0,0,0.4251,0.4282,0.4287,0.4315,0.4334,0.436,0.4372,0.4378,0.4398,0.4397,0.4414,0.4419,0.4442,0.4454,0.4446,0.4483,0.4481,0.4484,0.4475,0.4476,0.4477,0.4473,0.4451,0,0,0,0,0,0.4253,0.4273,0.4298,0.432,0.4329,0.4349,0.4361,0.4371,0.439,0.4398,0.4415,0.4433,0.4452,0.4465,0.4484,0.4508,0.4513,0.4517,0.4518,0.4519,0.452,0.4533,0.4534,0.4516,0.4516,0.4516,0,0,0.4255,0.4275,0.4286,0.4319,0.4335,0.4354,0.4356,0.4376,0.439,0.4401,0.4425,0.4438,0.4459,0.4483,0.4494,0.4494,0.4527,0.452,0.452,0.4522,0.4534,0.4536,0.4537,0.4516,0.4516,0.4516,0,0,0.427,0.4287,0.4307,0.4322,0.4346,0.4359,0.4363,0.4389,0.4398,0.4422,0.443,0.4446,0.4479,0.4494,0.4506,0.4524,0.4529,0.4529,0.4533,0.4545,0.4546,0.4548,0.4553,0.4555,0.4531,0.4531,0.4531,0,0.427,0.4301,0.4316,0.4336,0.4349,0.436,0.4379,0.4393,0.4421,0.443,0.4429,0.447,0.4485,0.4512,0.4516,0.4525,0.453,0.4527,0.4545,0.4547,0.4548,0.4554,0.4556,0.4531,0.4531,0.4531,0.4531,0,0.4299,0.432,0.4332,0.436,0.4375,0.4394,0.4411,0.4424,0.4431,0.4443,0.4467,0.4485,0.4508,0.4514,0.4522,0.4542,0.4541,0.4542,0.454,0.455,0.4555,0.4557,0.4531,0.4531,0.4531,0.4531,0,0,0.4311,0.4345,0.435,0.4362,0.4388,0.4404,0.4422,0.4445,0.4455,0.4474,0.4489,0.4516,0.4517,0.453,0.4539,0.455,0.4561,0.455,0.455,0.4551,0.4583,0.4581,0.4584,0.4565,0.4565,0.4565,0.4581,0,0.4328,0.4364,0.4377,0.4405,0.4424,0.4433,0.445,0.4467,0.4478,0.4494,0.4507,0.4525,0.4526,0.4534,0.4544,0.4558,0.4568,0.4557,0.4578,0.4579,0.4572,0.4587,0.4585,0.4599,0.4583,0.4583,0.4584,0,0.4354,0.4373,0.4403,0.4426,0.4434,0.4449,0.4469,0.4485,0.4504,0.4511,0.4525,0.4533,0.4552,0.4548,0.4574,0.4566,0.4575,0.4582,0.4583,0.4586,0.4582,0.4589,0.4604,0.4606,0.4587,0.4587,0.4587,0,0.4358,0.4391,0.4413,0.4423,0.4451,0.446,0.4472,0.449,0.4502,0.452,0.4528,0.4547,0.4557,0.4571,0.4584,0.458,0.4607,0.4605,0.4613,0.4612,0.4618,0.4618,0.4635,0.4625,0.4625,0.4625,0.4624,0,0.4376,0.4394,0.4416,0.4429,0.4449,0.4463,0.4482,0.4494,0.451,0.4525,0.4534,0.4548,0.4563,0.4579,0.4588,0.4607,0.4611,0.4617,0.4619,0.4616,0.4616,0.4623,0.4622,0.4625,0.4625,0.4625,0.4625,0,0.4384,0.44,0.4424,0.4448,0.4454,0.4467,0.4487,0.45,0.4511,0.453,0.4535,0.4552,0.4571,0.4584,0.4608,0.4614,0.4634,0.4636,0.4628,0.4629,0.4636,0.4634,0.4657,0.4661,0.4649,0.4649,0.4649,0,0.4395,0.4409,0.4434,0.4445,0.4456,0.4474,0.4486,0.45,0.4512,0.4534,0.4543,0.4562,0.4578,0.4607,0.4621,0.4638,0.4641,0.4648,0.4644,0.464,0.4641,0.4639,0.464,0.4648,0.4649,0.4649,0.4649,0,0.4411,0.4418,0.4436,0.4456,0.447,0.4486,0.4503,0.4511,0.4527,0.454,0.4559,0.4572,0.4595,0.4613,0.4632,0.4643,0.4648,0.465,0.4652,0.4649,0.4643,0.4646,0.4629,0.4649,0.4649,0.4649,0.4649,0.4649,0.4421,0.4433,0.4452,0.4471,0.4485,0.45,0.4513,0.4525,0.4542,0.4563,0.4569,0.4589,0.4605,0.4631,0.4642,0.4656,0.4656,0.466,0.4661,0.4662,0.4661,0.4641,0.4659,0.4659,0.4659,0.4659,0.4659,0,0.4437,0.445,0.4467,0.449,0.4504,0.4508,0.4526,0.4538,0.4555,0.457,0.4585,0.4606,0.4624,0.4639,0.4656,0.4665,0.4668,0.4669,0.4668,0.467,0.466,0.4656,0.4666,0.4666,0.4666,0.4666,0.4666,0.4666,0.4448,0.4468,0.4477,0.4504,0.4516,0.4536,0.4545,0.4558,0.4571,0.4594,0.4609,0.4618,0.4633,0.4652,0.4667,0.4671,0.4677,0.4677,0.4682,0.4672,0.4671,0.467,0.4666,0.4679,0.4679,0.4691,0.4691,0.4691]},{"header":{"parameterUnit":"m.s-1","parameterCategory":1,"la1":30.2991,"la2":30.254,"lo1":-89.0895,"lo2":-89.0444,"dy":0.0017,"dx":0.0017,"nx":28,"ny":28,"refTime":"2025-03-23T21:00:00:Z","depth":0,"parameterNumber":3,"parameterNumberName":"V-component_of_WINDS"},"data":[0,0,0,0,0,0,0,0,0,0,0,0,0,0,0,0,0,0,0,0,0,0,0,0,0,0,0,0,0,0,0,0,0,0,0,0,0,0,0,0,0,0,0,0,0,0,0,0,0,0,0,0,0,0,0,0,0,0,1.66,1.6599,0,1.6484,1.6482,1.6481,1.6395,1.6395,1.6394,1.6393,1.6267,1.6264,1.6261,0,0,0,0,0,0,0,0,0,0,0,0,0,1.6741,1.6739,1.66,1.6599,1.6598,1.6484,1.6482,1.6481,1.6396,1.6395,1.6394,1.6393,1.6267,1.6264,1.6261,0,0,0,0,0,0,0,0,0,0,0,0,0,1.6658,1.6739,1.6601,1.6542,1.6535,1.6484,1.6482,1.648,1.6396,1.6395,1.6394,1.6393,1.6268,1.6265,1.6261,1.6257,0,0,1.6248,1.6246,0,0,0,0,0,0,0,0,1.6663,1.6653,1.6552,1.6545,1.6538,1.6453,1.6485,1.6405,1.6396,1.6448,1.6393,1.6392,1.6329,1.632,1.63,1.6251,1.6246,1.6248,1.6245,1.6244,1.6242,0,0,0,0,0,0,0,1.6669,1.6657,1.6554,1.655,1.6542,1.6518,1.6505,1.647,1.6396,1.6444,1.6437,1.6425,1.6325,1.6304,1.6297,1.6244,1.6248,1.6244,1.6242,1.624,1.6184,1.6185,0,0,0,0,0,0,1.6685,1.6663,1.6558,1.655,1.6599,1.6517,1.6502,1.6481,1.6396,1.6382,1.6426,1.6422,1.6312,1.6301,1.6292,1.6281,1.6244,1.624,1.6237,1.6183,1.6184,1.6185,0,0,0,0,0,0,1.6688,1.6676,1.6562,1.6605,1.6589,1.6515,1.6493,1.648,1.6459,1.6383,1.6368,1.6419,1.631,1.6297,1.6266,1.6276,1.6238,1.6234,1.6182,1.6183,1.6185,1.6262,0,0,0,0,0,0,1.6693,1.6678,1.6678,1.6606,1.6587,1.6542,1.6493,1.6478,1.6453,1.6446,1.6372,1.6359,1.6309,1.6273,1.6262,1.627,1.6231,1.6181,1.6182,1.6184,1.6258,1.6265,1.6272,0,0,0,0,0,1.6698,1.6703,1.6678,1.6666,1.6585,1.6543,1.6531,1.6476,1.6454,1.6452,1.6403,1.6361,1.6277,1.6271,1.6258,1.6264,1.618,1.6182,1.6184,1.6255,1.6264,1.6272,0,0,0,0,0,0,1.6776,1.6692,1.6664,1.6647,1.6603,1.6528,1.6524,1.6487,1.6446,1.6441,1.6371,1.6355,1.6331,1.6294,1.6289,1.6255,1.6223,1.6222,1.6281,1.6289,1.6296,1.6305,1.6228,0,0,0,0,0,1.6792,1.6766,1.6693,1.6684,1.6664,1.6598,1.6577,1.6538,1.6489,1.6469,1.6418,1.6369,1.6331,1.6308,1.6269,1.6252,1.6233,1.6249,1.6256,1.6263,1.6263,1.625,1.6256,1.6192,1.6192,1.6192,0,0,1.6823,1.6774,1.6762,1.6699,1.666,1.6633,1.6583,1.6557,1.6535,1.6464,1.6433,1.6393,1.6334,1.631,1.6296,1.6278,1.6277,1.6265,1.6271,1.6268,1.6253,1.6259,1.6265,1.6193,1.6193,1.6193,0,0,1.6866,1.6827,1.6815,1.6778,1.6721,1.6677,1.6674,1.6605,1.6577,1.6544,1.649,1.6462,1.6399,1.6359,1.633,1.6357,1.6317,1.6346,1.6383,1.6371,1.6376,1.638,1.6389,1.6393,1.6347,1.6347,1.6347,0,1.6911,1.6871,1.6813,1.6791,1.6764,1.67,1.6686,1.6652,1.6584,1.6566,1.6546,1.6465,1.6421,1.6386,1.6393,1.6372,1.6365,1.6354,1.638,1.6384,1.6387,1.6395,1.6398,1.6351,1.635,1.635,1.6349,0,1.6929,1.6902,1.6899,1.6838,1.681,1.6792,1.6729,1.6708,1.667,1.6627,1.6594,1.6538,1.6487,1.6475,1.6438,1.6435,1.6425,1.6394,1.636,1.6398,1.6404,1.6407,1.6356,1.6355,1.6354,1.6353,0,0,1.702,1.6927,1.6927,1.6898,1.6829,1.6806,1.6783,1.6735,1.6718,1.6672,1.6651,1.6598,1.6569,1.6537,1.6493,1.6483,1.6507,1.6452,1.645,1.6465,1.6499,1.6524,1.6528,1.648,1.648,1.648,1.6504,0,1.7052,1.7013,1.6959,1.6936,1.6909,1.6847,1.6827,1.6782,1.6741,1.6709,1.6662,1.6627,1.6591,1.6571,1.6558,1.6507,1.6513,1.6504,1.6457,1.6456,1.6475,1.6532,1.6557,1.6583,1.6506,1.6507,1.6507,0,1.7086,1.7047,1.7022,1.6955,1.6941,1.6925,1.6876,1.6848,1.6794,1.6764,1.6728,1.6682,1.6652,1.6622,1.6579,1.6575,1.6551,1.6523,1.6523,1.6516,1.6485,1.6527,1.659,1.6594,1.651,1.651,1.651,0,1.7155,1.7095,1.7072,1.7049,1.6971,1.696,1.6927,1.6872,1.6846,1.6802,1.6784,1.6736,1.671,1.6673,1.6614,1.6597,1.6577,1.6541,1.655,1.6551,1.6549,1.655,1.6609,1.6534,1.6534,1.6534,1.6533,0,1.7197,1.7184,1.7102,1.7088,1.707,1.7008,1.6991,1.6951,1.6903,1.6878,1.682,1.6797,1.6721,1.6688,1.6641,1.6612,1.66,1.6574,1.6562,1.658,1.6584,1.6564,1.6561,1.6534,1.6534,1.6534,1.6534,0,1.7272,1.7216,1.7187,1.7116,1.7097,1.7088,1.7025,1.7007,1.6963,1.6932,1.6921,1.685,1.6808,1.6746,1.6684,1.6652,1.6631,1.6611,1.6651,1.6643,1.6656,1.6655,1.6705,1.6708,1.6631,1.6632,1.6632,0,1.7303,1.7292,1.722,1.72,1.717,1.7139,1.7112,1.7049,1.7023,1.696,1.695,1.6905,1.6865,1.6801,1.6742,1.6695,1.6673,1.6693,1.6665,1.6683,1.6673,1.6675,1.6673,1.67,1.6701,1.6702,1.6703,0,1.7365,1.7338,1.7304,1.726,1.7231,1.7193,1.7151,1.7137,1.7064,1.7038,1.6996,1.6966,1.6904,1.6859,1.6803,1.6765,1.6721,1.6712,1.6712,1.673,1.6754,1.6741,1.6669,1.6712,1.6711,1.671,1.671,1.6709,1.7418,1.7405,1.7353,1.7316,1.7279,1.7241,1.7222,1.7175,1.714,1.7087,1.705,1.7011,1.6954,1.6875,1.6839,1.6805,1.6787,1.6786,1.6786,1.6787,1.6793,1.6759,1.6795,1.6794,1.6794,1.6794,1.6793,0,1.7477,1.744,1.7408,1.7353,1.7323,1.7287,1.7238,1.7216,1.7183,1.7135,1.7098,1.7049,1.7004,1.6942,1.6892,1.6877,1.6855,1.6866,1.6866,1.6858,1.6813,1.6818,1.6884,1.6884,1.6884,1.6884,1.6884,1.6884,1.7505,1.7481,1.7448,1.7404,1.7365,1.7328,1.7304,1.7268,1.723,1.7179,1.7143,1.7103,1.7049,1.6994,1.6951,1.6933,1.6918,1.6935,1.6911,1.687,1.6861,1.6854,1.6859,1.6932,1.6932,1.6959,1.6959,1.6959]}]]